This demonstration page uses our WeatherBlox Daily Observations layout. Learn more.

Left ArrowRight Arrow

Hourly Observations for March 13, 2021

Temp ( °F °C ) Dew Point ( °F °C ) Humidity (%) Winds ( mph kmh ) Pressure ( in mb ) Visibility ( mi km ) Precip ( " mm )
12:53 am 00:53 Clear 29 -1.7 21 -6.1 72 72 W 5 7 30.2 1023 10 16.0934 0 0
1:53 am 01:53 Clear 28 -2.2 22 -5.6 78 78 W 3 6 30.22 1023 10 16.0934 0 0
2:53 am 02:53 Clear 28 -2.2 22 -5.6 78 78 SSW 7 11 30.22 1023 10 16.0934 0 0
3:53 am 03:53 Clear 28 -2.2 22 -5.6 78 78 WNW 6 9 30.22 1023 10 16.0934 0 0
4:53 am 04:53 Clear 26 -3.3 21 -6.1 81 81 W 6 9 30.24 1024 10 16.0934 0 0
5:53 am 05:53 Clear 25 -3.9 21 -6.1 85 85 WSW 3 6 30.26 1025 10 16.0934 0 0
6:53 am 06:53 Sunny 25 -3.9 20 -6.7 81 81 SW 8 13 30.3 1026 10 16.0934 0 0
7:53 am 07:53 Sunny 30 -1.1 24 -4.4 79 79 SW 6 9 30.3 1026 10 16.0934 0 0
8:53 am 08:53 Sunny 36 2.2 26 -3.3 67 67 WSW 9 15 30.31 1026 10 16.0934 0 0
9:53 am 09:53 Sunny 41 5 26 -3.3 55 55 WSW 9 15 30.31 1026 10 16.0934 0 0
10:53 am 10:53 Sunny 46 7.8 25 -3.9 44 44 W 8 13 30.31 1026 10 16.0934 0 0
11:53 am 11:53 Sunny 49 9.4 25 -3.9 39 39 SW 6 9 30.3 1026 10 16.0934 0 0
12:53 pm 12:53 Sunny 52 11.1 24 -4.4 34 34 SSW 5 7 30.27 1025 10 16.0934 0 0
1:53 pm 13:53 Sunny 56 13.3 25 -3.9 30 30 N 5 7 30.26 1025 10 16.0934 0 0
2:53 pm 14:53 Sunny 58 14.4 25 -3.9 28 28 ENE 7 11 30.24 1024 10 16.0934 0 0
3:53 pm 15:53 Sunny 60 15.6 21 -6.1 22 22 E 12 19 30.22 1023 10 16.0934 0 0
4:53 pm 16:53 Sunny 57 13.9 20 -6.7 24 24 E 14 22 30.21 1023 10 16.0934 0 0
5:53 pm 17:53 Sunny 53 11.7 20 -6.7 27 27 E 13 20 30.24 1024 10 16.0934 0 0
6:53 pm 18:53 Clear 44 6.7 22 -5.6 41 41 E 12 19 30.25 1025 10 16.0934 0 0
7:53 pm 19:53 Clear 43 6.1 21 -6.1 42 42 E 9 15 30.25 1024 10 16.0934 0 0
8:53 pm 20:53 Clear 40 4.4 19 -7.2 43 43 Calm 30.24 1024 10 16.0934 0 0
9:53 pm 21:53 Clear 35 1.7 20 -6.7 54 54 ENE 9 15 30.25 1025 10 16.0934 0 0
10:53 pm 22:53 Clear 34 1.1 19 -7.2 54 54 E 9 15 30.23 1024 10 16.0934 0 0
11:53 pm 23:53 Clear 34 1.1 19 -7.2 54 54 ENE 7 11 30.21 1023 10 16.0934 0 0

Powered by AerisWeather